TimeCST,TemperatureF,Dew PointF,Humidity,Sea Level PressureIn,VisibilityMPH,Wind Direction,Wind SpeedMPH,Gust SpeedMPH,PrecipitationIn,Events,Conditions,WindDirDegrees,DateUTC
12:53 AM,55.9,54.0,93,30.17,8.0,Calm,Calm,-,N/A,,Partly Cloudy,0,2012-11-20 06:53:00
1:53 AM,54.0,53.1,97,30.17,8.0,Calm,Calm,-,N/A,,Clear,0,2012-11-20 07:53:00
2:53 AM,53.1,52.0,96,30.16,7.0,Calm,Calm,-,N/A,,Clear,0,2012-11-20 08:53:00
3:53 AM,53.1,52.0,96,30.16,6.0,Calm,Calm,-,N/A,,Clear,0,2012-11-20 09:53:00
4:53 AM,54.0,53.1,97,30.17,5.0,Calm,Calm,-,N/A,,Clear,0,2012-11-20 10:53:00
5:53 AM,52.0,50.0,93,30.17,5.0,Calm,Calm,-,N/A,,Clear,0,2012-11-20 11:53:00
6:53 AM,53.1,51.1,93,30.19,6.0,Calm,Calm,-,N/A,,Clear,0,2012-11-20 12:53:00
7:53 AM,54.0,53.1,97,30.20,5.0,Calm,Calm,-,N/A,,Clear,0,2012-11-20 13:53:00
8:53 AM,62.1,57.0,84,30.22,6.0,Calm,Calm,-,N/A,,Haze,0,2012-11-20 14:53:00
9:53 AM,69.1,59.0,70,30.22,10.0,WSW,5.8,-,N/A,,Clear,250,2012-11-20 15:53:00
10:53 AM,73.0,55.9,55,30.21,10.0,SW,8.1,-,N/A,,Clear,220,2012-11-20 16:53:00
11:53 AM,75.0,57.9,55,30.19,10.0,WSW,6.9,-,N/A,,Clear,250,2012-11-20 17:53:00
1:53 PM,77.0,57.9,52,30.12,10.0,Variable,3.5,-,N/A,,Clear,0,2012-11-20 19:53:00
2:53 PM,78.1,57.0,48,30.11,10.0,Calm,Calm,-,N/A,,Clear,0,2012-11-20 20:53:00
3:53 PM,80.1,57.0,45,30.10,10.0,Calm,Calm,-,N/A,,Clear,0,2012-11-20 21:53:00
4:53 PM,75.9,57.0,52,30.11,10.0,South,3.5,-,N/A,,Clear,170,2012-11-20 22:53:00
5:53 PM,71.1,57.9,63,30.13,10.0,SSE,3.5,-,0.00,,Clear,160,2012-11-20 23:53:00
6:53 PM,66.9,57.9,73,30.14,10.0,South,3.5,-,0.00,,Clear,180,2012-11-21 00:53:00
7:53 PM,64.0,57.9,80,30.16,10.0,Calm,Calm,-,N/A,,Clear,0,2012-11-21 01:53:00
8:53 PM,63.0,57.9,84,30.17,10.0,Calm,Calm,-,N/A,,Clear,0,2012-11-21 02:53:00
9:53 PM,61.0,57.0,87,30.17,10.0,Calm,Calm,-,N/A,,Clear,0,2012-11-21 03:53:00
10:53 PM,62.1,57.0,84,30.18,10.0,South,3.5,-,N/A,,Clear,170,2012-11-21 04:53:00
11:53 PM,64.0,57.0,78,30.18,10.0,SE,3.5,-,N/A,,Partly Cloudy,140,2012-11-21 05:53:00